Location: Unspecified
(47.1121°N, 116.3927°W)
Time: 04:15:36
(UTC-07:00)

ISS - Pass Details

Date: 25 May 2019
Orbit: 408 x 418 km, 51.6° (Epoch: 19 June)

Event Time Altitude Azimuth Distance (km) Brightness Sun altitude
Rises 23:40:39 0° 295° (WNW) 2,362 0.6 -20.4°
Reaches altitude 10° 23:42:45 10° 297° (WNW) 1,498 -0.4 -20.5°
Maximum altitude 23:46:07 75° 22° (NNE) 437 -3.7 -20.6°
Enters shadow 23:46:07 75° 24° (NNE) 437 -3.7 -20.6°
